This demonstration page uses our WeatherBlox Daily Observations layout. Learn more.

Left ArrowRight Arrow

Hourly Observations for June 27, 2020

Temp ( °F °C ) Dew Point ( °F °C ) Humidity (%) Winds ( mph kmh ) Pressure ( in mb ) Visibility ( mi km ) Precip ( " mm )
12:53 am 00:53 Clear 64 17.8 51 10.6 63 63 N N/A 29.62 1003 10 16 N/A
1:53 am 01:53 Clear 61 16.1 51 10.6 70 70 WSW 5 7 29.62 1003 10 16 N/A
2:53 am 02:53 Clear 58 14.4 51 10.6 78 78 SW 8 13 29.61 1003 10 16 N/A
3:53 am 03:53 Clear 59 15 52 11.1 78 78 SW 10 17 29.59 1002 10 16 N/A
4:53 am 04:53 Clear 59 15 52 11.1 78 78 WNW 8 13 29.60 1002 10 16 N/A
5:53 am 05:53 Sunny 61 16.1 52 11.1 72 72 SW 9 15 29.59 1002 10 16 N/A
6:53 am 06:53 Sunny 65 18.3 53 11.7 66 66 W 5 7 29.59 1002 10 16 N/A
7:53 am 07:53 Partly Cloudy 70 21.1 53 11.7 55 55 SW 8 13 29.60 1002 10 16 N/A
8:53 am 08:53 Mostly Cloudy 73 22.8 52 11.1 48 48 WSW 12 19 29.61 1003 10 16 N/A
9:53 am 09:53 Cloudy 71 21.7 55 12.8 57 57 SW 13 20 29.60 1003 10 16 0.00 0.00
10:53 am 10:53 Partly Cloudy 76 24.4 55 12.8 48 48 SW 17 28 29.58 1002 10 16 N/A
11:53 am 11:53 Sunny 83 28.3 51 10.6 33 33 SW 16 26 29.56 1001 10 16 N/A
12:53 pm 12:53 Mostly Cloudy 81 27.2 51 10.6 35 35 WNW 13 20 29.57 1001 10 16 N/A
1:53 pm 13:53 Mostly Cloudy 81 27.2 52 11.1 37 37 NNW 10 17 29.57 1001 10 16 N/A
2:36 pm 14:36 Cloudy with Strong Thunderstorms 71 21.7 57 13.9 61 61 WSW 24 39 29.52 1000 2 2 0.01 0.25
2:39 pm 14:39 Cloudy with Strong Thunderstorms 67 19.4 57 13.9 71 71 VRB 5 7 29.54 1000 1 1 0.03 0.76
2:46 pm 14:46 Cloudy with Thunderstorms 65 18.3 55 12.8 70 70 SSE 8 13 29.55 1001 2 2 0.25 6.35
2:48 pm 14:48 Cloudy with Light Rain 64 18 55 13 73 73 SSE 9 15 29.55 1001 4 6 0.25 6.35
2:53 pm 14:53 Mostly Cloudy with Rain 65 18.3 58 14.4 78 78 E 12 19 29.59 1002 8 13 0.27 6.86
3:53 pm 15:53 Partly Cloudy 77 25 59 15 54 54 ENE 6 9 29.54 1001 10 16 0.00 0.00
4:53 pm 16:53 Sunny 83 28.3 51 10.6 33 33 N 7 11 29.52 1000 10 16 N/A
5:53 pm 17:53 Partly Cloudy 84 28.9 50 10 31 31 NNE 7 11 29.50 999 10 16 N/A
6:28 pm 18:28 Mostly Cloudy with Nearby Thunderstorms 81 27.2 51 10.6 35 35 NE 7 11 29.39 995 10 16 N/A
6:53 pm 18:53 Cloudy with Nearby Thunderstorms 72 22.2 55 12.8 55 55 SSE 6 9 29.51 999 10 16 N/A
7:20 pm 19:20 Mostly Sunny 68 20 57 13.9 68 68 NW 14 22 29.47 998 10 16 N/A
7:29 pm 19:29 Sunny with Nearby Thunderstorms 71 21.7 54 12.2 55 55 VRB 6 9 29.45 997 10 16 N/A
7:53 pm 19:53 Mostly Cloudy with Nearby Thunderstorms 69 20.6 56 13.3 63 63 SE 5 7 29.51 999 10 16 N/A
8:01 pm 20:01 Mostly Cloudy 70 21.1 55 12.8 59 59 NE 3 6 29.44 997 10 16 N/A
8:53 pm 20:53 Cloudy with Rain 65 18.3 58 14.4 78 78 S 10 17 29.52 1000 7 11 0.02 0.51
9:04 pm 21:04 Cloudy with Nearby Thunderstorms 64 18 59 15 83 83 SSW 8 13 29.49 999 10 16 N/A
9:19 pm 21:19 Cloudy 63 17.2 60 15.6 90 90 WNW 3 6 29.52 1000 10 16 0.00 0.00
9:53 pm 21:53 Partly Cloudy 63 17.2 60 15.6 90 90 ESE 6 9 29.54 1000 10 16 0.00 0.00
10:53 pm 22:53 Clear 63 17.2 59 15 87 87 NE 6 9 29.52 1000 10 16 N/A
11:53 pm 23:53 Cloudy 62 16.7 59 15 90 90 NE 10 17 29.53 1000 10 16 N/A

Powered by AerisWeather